STARLINK-1604 (46122 NORAD) Tracking and Keplerian Element Data

This shows tracking and keplerian element data for the satellite.

Feedback or suggestion? Click here.




ElementValue
Catalog46122
NameSTARLINK-1604
Epoch Orbit1706
Epoch Day336.25001157
Epoch Year2020
RAAN287.5244
Inclination52.9997
Eccentricity0.0006681
Argument of Perigee296.5417
Mean Anonmoly153.1699
Mean Motion15.62705018
Decay Rate2.419E-05
L11 46122U 20057F 20336.25001157 .00002419 00000-0 32348-4 0 9994
L22 46122 52.9997 287.5244 0006681 296.5417 153.1699 15.62705018 17068

Live tracking and technical data element details for STARLINK-1604 (NORAD 46122). STARLINK-1604 can be tracked NOW for your location showing map with azimuth and elevation plus other details from your city location.

Track the satellite on the map from your city or location and see movement details for azimuth, elevation, latitude, longitude, range, height, and movement on the map or in text.







IsCatalogInMostPopularTable: catalog: 46122, numindb: 20
Update: records affected: 1



GetName: 46122 STARLINK-1604

Hit Count: updated at: Wed, 02 Dec 2020 06:13:34 GMT